When you browse on this site, cookies collect data to enhance your experience and personalize the content and advertising you see.
Visit our Privacy Policy to learn more. By continuing to use the site, you agree to this use of cookies and data.

Hourly Weather Kryukovo

Today, 13 July, Monday

Time Temperature Precipitation Wind Pressure Humidity
00:00 +19°C° 0 mm 1 mps 741 mmHg 82%
01:00 +19°C° 0 mm 1 mps 740 mmHg 83%
02:00 +19°C° 0 mm 1 mps 740 mmHg 84%
03:00 +18°C° 0 mm 1 mps 740 mmHg 85%
04:00 +19°C° 0 mm 1 mps 740 mmHg 86%
05:00 +19°C° 0 mm 1 mps 740 mmHg 86%
06:00 +19°C° 0 mm 1 mps 739 mmHg 87%
07:00 +21°C° 0 mm 1 mps 739 mmHg 83%
08:00 +21°C° 0 mm 2 mps 739 mmHg 80%
09:00 +23°C° 0 mm 2 mps 739 mmHg 76%
10:00 +24°C° 0.1 mm 2 mps 739 mmHg 74%
11:00 +25°C° 0.1 mm 2 mps 739 mmHg 71%
12:00 +26°C° 0.1 mm 2 mps 739 mmHg 68%
13:00 +25°C° 0.8 mm 2 mps 739 mmHg 70%
14:00 +25°C° 0.8 mm 2 mps 739 mmHg 72%
15:00 +25°C° 0.8 mm 3 mps 738 mmHg 74%
16:00 +24°C° 0.5 mm 2 mps 738 mmHg 77%
17:00 +23°C° 0.5 mm 2 mps 738 mmHg 80%
18:00 +23°C° 0.5 mm 1 mps 737 mmHg 84%
19:00 +22°C° 0.1 mm 1 mps 737 mmHg 86%
20:00 +20°C° 0.1 mm 2 mps 738 mmHg 89%
21:00 +19°C° 0.1 mm 2 mps 738 mmHg 91%
22:00 +19°C° 0.2 mm 2 mps 737 mmHg 92%
23:00 +18°C° 0.2 mm 3 mps 737 mmHg 93%

Tomorrow, 14 July, Tuesday

Time Temperature Precipitation Wind Pressure Humidity
00:00 +18°C° 0.2 mm 3 mps 737 mmHg 94%
01:00 +18°C° 0.3 mm 3 mps 737 mmHg 95%
02:00 +18°C° 0.3 mm 4 mps 736 mmHg 95%
03:00 +17°C° 0.3 mm 4 mps 736 mmHg 96%
04:00 +18°C° 0.4 mm 4 mps 736 mmHg 96%
05:00 +18°C° 0.4 mm 4 mps 735 mmHg 96%
06:00 +18°C° 0.4 mm 4 mps 735 mmHg 96%
07:00 +18°C° 0.2 mm 4 mps 735 mmHg 96%
08:00 +18°C° 0.2 mm 3 mps 735 mmHg 96%
09:00 +18°C° 0.2 mm 3 mps 735 mmHg 95%
10:00 +19°C° 0.5 mm 3 mps 735 mmHg 95%
11:00 +19°C° 0.5 mm 3 mps 735 mmHg 94%
12:00 +19°C° 0.5 mm 3 mps 735 mmHg 94%
13:00 +19°C° 0.6 mm 4 mps 735 mmHg 94%
14:00 +20°C° 0.6 mm 4 mps 735 mmHg 94%
15:00 +20°C° 0.6 mm 4 mps 734 mmHg 94%
16:00 +20°C° 1.5 mm 4 mps 734 mmHg 94%
17:00 +19°C° 1.5 mm 4 mps 734 mmHg 95%
18:00 +19°C° 1.5 mm 4 mps 733 mmHg 96%
19:00 +19°C° 0.4 mm 3 mps 733 mmHg 96%
20:00 +18°C° 0.4 mm 2 mps 732 mmHg 97%
21:00 +18°C° 0.4 mm 2 mps 732 mmHg 97%
22:00 +18°C° 0.2 mm 2 mps 732 mmHg 97%
23:00 +19°C° 0.2 mm 1 mps 732 mmHg 97%

Day after tomorrow, 15 July, Wednesday

Time Temperature Precipitation Wind Pressure Humidity
00:00 +19°C° 0.2 mm 1 mps 731 mmHg 97%
01:00 +18°C° 0.1 mm 1 mps 731 mmHg 97%
02:00 +17°C° 0.1 mm 2 mps 731 mmHg 97%
03:00 +17°C° 0.1 mm 2 mps 731 mmHg 97%
04:00 +17°C° 0 mm 2 mps 731 mmHg 97%
05:00 +17°C° 0 mm 2 mps 731 mmHg 97%
06:00 +18°C° 0 mm 3 mps 731 mmHg 97%
07:00 +18°C° 0.2 mm 3 mps 731 mmHg 96%
08:00 +18°C° 0.2 mm 4 mps 731 mmHg 96%
09:00 +18°C° 0.2 mm 4 mps 731 mmHg 95%
10:00 +18°C° 0.5 mm 4 mps 731 mmHg 93%
11:00 +17°C° 0.5 mm 5 mps 731 mmHg 91%
12:00 +17°C° 0.5 mm 5 mps 731 mmHg 89%
13:00 +19°C° 0.4 mm 5 mps 731 mmHg 87%
14:00 +19°C° 0.4 mm 5 mps 732 mmHg 85%
15:00 +20°C° 0.4 mm 5 mps 732 mmHg 83%
16:00 +19°C° 0.6 mm 5 mps 732 mmHg 85%
17:00 +19°C° 0.6 mm 5 mps 732 mmHg 87%
18:00 +18°C° 0.6 mm 4 mps 732 mmHg 88%
19:00 +16°C° 0.1 mm 5 mps 732 mmHg 90%
20:00 +15°C° 0.1 mm 5 mps 732 mmHg 92%
21:00 +14°C° 0.1 mm 5 mps 733 mmHg 94%
22:00 +14°C° 0 mm 5 mps 733 mmHg 94%
23:00 +15°C° 0 mm 5 mps 733 mmHg 94%

16 July, Thursday

Time Temperature Precipitation Wind Pressure Humidity
00:00 +15°C° 0 mm 5 mps 733 mmHg 94%
01:00 +15°C° 0 mm 5 mps 733 mmHg 94%
02:00 +15°C° 0 mm 5 mps 733 mmHg 93%
03:00 +14°C° 0 mm 5 mps 733 mmHg 93%
04:00 +14°C° 0 mm 6 mps 733 mmHg 93%
05:00 +14°C° 0 mm 6 mps 734 mmHg 93%
06:00 +13°C° 0 mm 6 mps 734 mmHg 94%
07:00 +13°C° 0 mm 6 mps 734 mmHg 93%
08:00 +13°C° 0 mm 6 mps 734 mmHg 93%
09:00 +14°C° 0 mm 6 mps 735 mmHg 92%
10:00 +14°C° 0 mm 6 mps 735 mmHg 91%
11:00 +14°C° 0 mm 5 mps 735 mmHg 90%
12:00 +15°C° 0 mm 5 mps 735 mmHg 89%
13:00 +15°C° 0 mm 5 mps 736 mmHg 88%
14:00 +15°C° 0 mm 6 mps 736 mmHg 88%
15:00 +15°C° 0 mm 6 mps 736 mmHg 88%
16:00 +15°C° 0 mm 5 mps 736 mmHg 88%
17:00 +15°C° 0 mm 5 mps 736 mmHg 87%
18:00 +15°C° 0 mm 5 mps 736 mmHg 87%
19:00 +15°C° 0 mm 5 mps 736 mmHg 87%
20:00 +14°C° 0 mm 5 mps 736 mmHg 88%
21:00 +14°C° 0 mm 4 mps 736 mmHg 88%
22:00 +14°C° 0 mm 4 mps 736 mmHg 90%
23:00 +13°C° 0 mm 5 mps 736 mmHg 91%

17 July, Friday

Time Temperature Precipitation Wind Pressure Humidity
00:00 +13°C° 0 mm 5 mps 736 mmHg 93%
01:00 +13°C° 0 mm 5 mps 736 mmHg 92%
02:00 +13°C° 0 mm 5 mps 736 mmHg 91%
03:00 +13°C° 0 mm 5 mps 736 mmHg 91%
04:00 +13°C° 0 mm 5 mps 736 mmHg 91%
05:00 +13°C° 0 mm 5 mps 736 mmHg 92%
06:00 +14°C° 0 mm 5 mps 737 mmHg 92%
07:00 +14°C° 0.1 mm 5 mps 737 mmHg 92%
08:00 +14°C° 0.1 mm 5 mps 737 mmHg 92%
09:00 +14°C° 0.1 mm 5 mps 737 mmHg 92%
10:00 +14°C° 0 mm 5 mps 737 mmHg 91%
11:00 +15°C° 0 mm 5 mps 737 mmHg 89%
12:00 +15°C° 0 mm 5 mps 738 mmHg 88%
13:00 +16°C° 0 mm 5 mps 738 mmHg 86%
14:00 +16°C° 0 mm 5 mps 738 mmHg 84%
15:00 +17°C° 0 mm 5 mps 738 mmHg 82%
16:00 +18°C° 0 mm 4 mps 738 mmHg 82%
17:00 +19°C° 0 mm 4 mps 738 mmHg 82%
18:00 +19°C° 0 mm 3 mps 738 mmHg 81%
19:00 +18°C° 0 mm 3 mps 738 mmHg 85%
20:00 +17°C° 0 mm 2 mps 739 mmHg 88%
21:00 +16°C° 0 mm 2 mps 739 mmHg 91%
22:00 +15°C° 0 mm 2 mps 739 mmHg 92%
23:00 +15°C° 0 mm 2 mps 739 mmHg 92%

18 July, Saturday

Time Temperature Precipitation Wind Pressure Humidity
00:00 +15°C° 0 mm 2 mps 739 mmHg 93%
01:00 +14°C° 0 mm 2 mps 739 mmHg 94%
02:00 +14°C° 0 mm 2 mps 739 mmHg 94%
03:00 +14°C° 0 mm 2 mps 740 mmHg 94%
04:00 +14°C° 0 mm 2 mps 740 mmHg 94%
05:00 +14°C° 0 mm 1 mps 740 mmHg 94%
06:00 +15°C° 0 mm 1 mps 740 mmHg 94%
07:00 +16°C° 0 mm 1 mps 740 mmHg 88%
08:00 +18°C° 0 mm 1 mps 740 mmHg 83%
09:00 +20°C° 0 mm 1 mps 740 mmHg 77%
10:00 +20°C° 0 mm 2 mps 740 mmHg 74%
11:00 +21°C° 0 mm 2 mps 740 mmHg 71%
12:00 +23°C° 0 mm 2 mps 740 mmHg 68%
13:00 +21°C° 0 mm 2 mps 740 mmHg 72%
14:00 +21°C° 0 mm 2 mps 740 mmHg 75%
15:00 +21°C° 0 mm 1 mps 740 mmHg 78%
16:00 +21°C° 0 mm 1 mps 740 mmHg 78%
17:00 +22°C° 0 mm 1 mps 740 mmHg 77%
18:00 +22°C° 0 mm 1 mps 740 mmHg 76%
19:00 +21°C° 0 mm 1 mps 740 mmHg 80%
20:00 +20°C° 0 mm 1 mps 740 mmHg 84%
21:00 +19°C° 0 mm 1 mps 740 mmHg 87%
22:00 +19°C° 0 mm 1 mps 740 mmHg 89%
23:00 +18°C° 0 mm 2 mps 740 mmHg 90%
Show more